Starlink 31645

operational
NORAD ID: 59264 Int'l Des: 2024-050 Owner: SPXS Country: US Constellation: starlink
LEOCIRCULAR

Starlink 31645について

説明を読み込み中...

リアルタイム位置

3D地球を読み込み中...

次回通過

高度履歴

Altitude vs Time

uPlot chart will show altitude changes over time

軌道要素

1 59264U 24050L 25352.80875496 .00020379 00000-0 69813-3 0 9992
2 59264 53.1573 196.7983 0001345 98.7357 261.3796 15.30207761 98167
Epoch: Dec 18, 2025 • Age: 10 hours

現在のステータス

高度 480.7 km
速度 7.63 km/s
衛星直下点 -19.20°S, 143.79°W
打ち上げ日 Mar 19, 2024
運用期間 1.7 years
タイプ internet

技術仕様

分類 Payload
質量 730.00 kg
乾燥質量 700.00 kg
総質量 730.00 kg
長さ 0.30 m
直径 4.10 m
スパン 29.00 m
形状 Box + pan
製造者 SPXS
バスタイプ Starlink V2M
フェーズステータス In Orbit
所有者/国 SPXS/US

大規模コンステレーション

Loading constellations...